• Em Portugal
  • Lista de países
  • Para 7 dias
  • Temperatura da água
  • Mapas de satélite
  • Mapa do tempo
  • Widgets de tempo
  • user-avatar
    Iniciar Sessão

    Previsão horária em Omaruru

    Hoje, 23 Fevereiro, Sexta-feira

    Tempo Temperatura Precipitação Vento Pressão Humidade
    00:00 +23°C° 0 mm 2 m/s 656 mmHg 58%
    01:00 +21°C° 0 mm 2 m/s 656 mmHg 59%
    02:00 +22°C° 0 mm 1 m/s 656 mmHg 60%
    03:00 +21°C° 0 mm 1 m/s 656 mmHg 61%
    04:00 +21°C° 0 mm 1 m/s 655 mmHg 62%
    05:00 +21°C° 0 mm 1 m/s 656 mmHg 59%
    06:00 +22°C° 0 mm 1 m/s 656 mmHg 56%
    07:00 +23°C° 0 mm 1 m/s 657 mmHg 54%
    08:00 +25°C° 0 mm 1 m/s 657 mmHg 48%
    09:00 +27°C° 0 mm 1 m/s 657 mmHg 42%
    10:00 +30°C° 0 mm 2 m/s 658 mmHg 35%
    11:00 +31°C° 0 mm 2 m/s 658 mmHg 32%
    12:00 +34°C° 0 mm 2 m/s 658 mmHg 28%
    13:00 +35°C° 0 mm 3 m/s 658 mmHg 25%
    14:00 +35°C° 0 mm 4 m/s 657 mmHg 26%
    15:00 +34°C° 0 mm 5 m/s 657 mmHg 27%
    16:00 +34°C° 0 mm 6 m/s 657 mmHg 27%
    17:00 +32°C° 0 mm 5 m/s 657 mmHg 31%
    18:00 +29°C° 0 mm 5 m/s 657 mmHg 35%
    19:00 +27°C° 0 mm 5 m/s 657 mmHg 38%
    20:00 +26°C° 0 mm 4 m/s 657 mmHg 42%
    21:00 +25°C° 0 mm 3 m/s 657 mmHg 46%
    22:00 +23°C° 0 mm 2 m/s 657 mmHg 50%
    23:00 +23°C° 0 mm 2 m/s 657 mmHg 53%

    Amanhã, 24 Fevereiro, Sábado

    Tempo Temperatura Precipitação Vento Pressão Humidade
    00:00 +21°C° 0 mm 2 m/s 657 mmHg 56%
    01:00 +20°C° 0 mm 2 m/s 656 mmHg 59%
    02:00 +20°C° 0 mm 2 m/s 656 mmHg 61%
    03:00 +19°C° 0 mm 2 m/s 656 mmHg 63%
    04:00 +19°C° 0 mm 2 m/s 656 mmHg 66%
    05:00 +19°C° 0 mm 2 m/s 656 mmHg 64%
    06:00 +20°C° 0 mm 1 m/s 657 mmHg 63%
    07:00 +21°C° 0 mm 1 m/s 657 mmHg 61%
    08:00 +23°C° 0 mm 2 m/s 658 mmHg 52%
    09:00 +25°C° 0 mm 2 m/s 658 mmHg 42%
    10:00 +27°C° 0 mm 3 m/s 659 mmHg 33%
    11:00 +29°C° 0 mm 4 m/s 659 mmHg 28%
    12:00 +32°C° 0 mm 4 m/s 659 mmHg 23%
    13:00 +34°C° 0 mm 5 m/s 659 mmHg 19%
    14:00 +34°C° 0 mm 6 m/s 659 mmHg 19%
    15:00 +33°C° 0 mm 7 m/s 658 mmHg 19%
    16:00 +33°C° 0 mm 7 m/s 658 mmHg 19%
    17:00 +30°C° 0 mm 7 m/s 658 mmHg 23%
    18:00 +27°C° 0 mm 6 m/s 658 mmHg 27%
    19:00 +25°C° 0 mm 5 m/s 658 mmHg 32%
    20:00 +23°C° 0 mm 4 m/s 658 mmHg 37%
    21:00 +22°C° 0 mm 4 m/s 658 mmHg 42%
    22:00 +20°C° 0 mm 3 m/s 659 mmHg 47%
    23:00 +20°C° 0 mm 2 m/s 658 mmHg 51%

    Depois de amanhã, 25 Fevereiro, Domingo

    Tempo Temperatura Precipitação Vento Pressão Humidade
    00:00 +19°C° 0 mm 2 m/s 658 mmHg 55%
    01:00 +18°C° 0 mm 2 m/s 658 mmHg 59%
    02:00 +19°C° 0 mm 1 m/s 657 mmHg 61%
    03:00 +19°C° 0 mm 1 m/s 657 mmHg 63%
    04:00 +18°C° 0 mm 1 m/s 657 mmHg 65%
    05:00 +19°C° 0 mm 1 m/s 657 mmHg 62%
    06:00 +20°C° 0 mm 1 m/s 658 mmHg 58%
    07:00 +20°C° 0 mm 1 m/s 658 mmHg 55%
    08:00 +23°C° 0 mm 1 m/s 659 mmHg 44%
    09:00 +26°C° 0 mm 2 m/s 660 mmHg 34%
    10:00 +29°C° 0 mm 2 m/s 660 mmHg 23%
    11:00 +31°C° 0 mm 2 m/s 660 mmHg 21%
    12:00 +34°C° 0 mm 2 m/s 660 mmHg 19%
    13:00 +35°C° 0 mm 2 m/s 659 mmHg 17%
    14:00 +35°C° 0 mm 2 m/s 659 mmHg 17%
    15:00 +35°C° 0 mm 3 m/s 659 mmHg 17%
    16:00 +35°C° 0 mm 4 m/s 658 mmHg 17%
    17:00 +33°C° 0 mm 5 m/s 658 mmHg 25%
    18:00 +29°C° 0 mm 5 m/s 658 mmHg 32%
    19:00 +26°C° 0 mm 6 m/s 657 mmHg 39%
    20:00 +25°C° 0 mm 5 m/s 658 mmHg 42%
    21:00 +23°C° 0 mm 4 m/s 658 mmHg 46%
    22:00 +21°C° 0 mm 3 m/s 658 mmHg 49%
    23:00 +21°C° 0 mm 2 m/s 658 mmHg 48%

    26 Fevereiro, Segunda-feira

    Tempo Temperatura Precipitação Vento Pressão Humidade
    00:00 +21°C° 0 mm 2 m/s 658 mmHg 47%
    01:00 +21°C° 0 mm 2 m/s 658 mmHg 45%
    02:00 +21°C° 0 mm 2 m/s 658 mmHg 46%
    03:00 +20°C° 0 mm 2 m/s 657 mmHg 46%
    04:00 +20°C° 0 mm 1 m/s 657 mmHg 46%
    05:00 +21°C° 0 mm 1 m/s 658 mmHg 44%
    06:00 +21°C° 0 mm 1 m/s 658 mmHg 41%
    07:00 +22°C° 0 mm 1 m/s 659 mmHg 39%
    08:00 +24°C° 0 mm 1 m/s 659 mmHg 34%
    09:00 +27°C° 0 mm 2 m/s 660 mmHg 28%
    10:00 +29°C° 0 mm 2 m/s 661 mmHg 23%
    11:00 +31°C° 0 mm 2 m/s 660 mmHg 22%
    12:00 +33°C° 0 mm 3 m/s 660 mmHg 21%
    13:00 +35°C° 0 mm 3 m/s 660 mmHg 20%
    14:00 +35°C° 0 mm 3 m/s 659 mmHg 20%
    15:00 +35°C° 0 mm 4 m/s 659 mmHg 20%
    16:00 +35°C° 0 mm 4 m/s 658 mmHg 19%
    17:00 +32°C° 0 mm 4 m/s 658 mmHg 23%
    18:00 +29°C° 0 mm 5 m/s 658 mmHg 27%
    19:00 +26°C° 0 mm 5 m/s 658 mmHg 30%
    20:00 +25°C° 0 mm 4 m/s 658 mmHg 34%
    21:00 +24°C° 0 mm 3 m/s 658 mmHg 38%
    22:00 +21°C° 0 mm 3 m/s 659 mmHg 42%
    23:00 +21°C° 0 mm 2 m/s 659 mmHg 43%

    27 Fevereiro, Terça-feira

    Tempo Temperatura Precipitação Vento Pressão Humidade
    00:00 +20°C° 0 mm 2 m/s 658 mmHg 44%
    01:00 +20°C° 0 mm 1 m/s 658 mmHg 45%
    02:00 +20°C° 0 mm 1 m/s 658 mmHg 46%
    03:00 +19°C° 0 mm 1 m/s 658 mmHg 47%
    04:00 +17°C° 0 mm 0 m/s 657 mmHg 48%
    05:00 +20°C° 0 mm 1 m/s 658 mmHg 45%
    06:00 +21°C° 0 mm 1 m/s 659 mmHg 42%
    07:00 +22°C° 0 mm 1 m/s 659 mmHg 38%
    08:00 +24°C° 0 mm 1 m/s 660 mmHg 35%
    09:00 +27°C° 0 mm 1 m/s 660 mmHg 32%
    10:00 +29°C° 0 mm 1 m/s 661 mmHg 29%
    11:00 +31°C° 0 mm 2 m/s 660 mmHg 26%
    12:00 +32°C° 0 mm 2 m/s 660 mmHg 23%
    13:00 +35°C° 0 mm 2 m/s 659 mmHg 20%
    14:00 +35°C° 0 mm 3 m/s 659 mmHg 20%
    15:00 +34°C° 0 mm 3 m/s 659 mmHg 20%
    16:00 +34°C° 0 mm 4 m/s 658 mmHg 20%
    17:00 +32°C° 0 mm 4 m/s 658 mmHg 23%
    18:00 +29°C° 0 mm 5 m/s 658 mmHg 26%
    19:00 +27°C° 0 mm 5 m/s 658 mmHg 29%
    20:00 +26°C° 0 mm 4 m/s 659 mmHg 34%
    21:00 +24°C° 0 mm 3 m/s 659 mmHg 39%
    22:00 +23°C° 0 mm 2 m/s 659 mmHg 44%
    23:00 +21°C° 0 mm 2 m/s 659 mmHg 46%

    28 Fevereiro, Quarta-feira

    Tempo Temperatura Precipitação Vento Pressão Humidade
    00:00 +22°C° 0 mm 1 m/s 658 mmHg 49%
    01:00 +19°C° 0 mm 0 m/s 658 mmHg 51%
    02:00 +19°C° 0 mm 0 m/s 658 mmHg 52%
    03:00 +19°C° 0 mm 0 m/s 658 mmHg 53%
    04:00 +18°C° 0 mm 0 m/s 658 mmHg 54%
    05:00 +19°C° 0 mm 0 m/s 658 mmHg 52%
    06:00 +20°C° 0 mm 0 m/s 659 mmHg 50%
    07:00 +23°C° 0 mm 1 m/s 660 mmHg 48%
    08:00 +25°C° 0 mm 1 m/s 660 mmHg 43%
    09:00 +27°C° 0 mm 1 m/s 660 mmHg 39%
    10:00 +28°C° 0 mm 0 m/s 660 mmHg 34%
    11:00 +31°C° 0 mm 1 m/s 660 mmHg 31%
    12:00 +32°C° 0 mm 2 m/s 660 mmHg 28%
    13:00 +35°C° 0 mm 3 m/s 659 mmHg 25%
    14:00 +34°C° 0 mm 4 m/s 659 mmHg 26%
    15:00 +33°C° 0 mm 5 m/s 659 mmHg 27%
    16:00 +33°C° 0 mm 6 m/s 658 mmHg 28%
    17:00 +30°C° 0 mm 6 m/s 658 mmHg 34%
    18:00 +27°C° 0 mm 6 m/s 658 mmHg 40%
    19:00 +24°C° 0 mm 6 m/s 658 mmHg 46%
    20:00 +23°C° 0 mm 5 m/s 658 mmHg 49%
    21:00 +22°C° 0 mm 4 m/s 658 mmHg 52%
    22:00 +21°C° 0 mm 3 m/s 658 mmHg 55%
    23:00 +21°C° 0 mm 2 m/s 658 mmHg 58%
    Mostrar mais